STARLINK-1256, 45401

Orbit data source: Space-Track

STARLINK-1256, 45401 is a payload satellite owned by SpaceX/Seattle (US) in LEO that was launched on Wed, 18 Mar 2020 UTC via an FALCON 9 launch vehicle from the Air Force Eastern Test Range (AFETR). Payloads include a variety of satellites, spacecraft, and rockets equipped with specific instruments for various scientific and technological missions. These include communications satellites like Starlink; space stations such as the ISS; scientific satellites like the Hubble; Earth observation satellites from companies like Planet Labs, Umbra, and HawkEye 360; GPS; miniature CubeSats for education and research; and military/defense satellites.

Loading next visibility...
STARLINK-1256 details
Identifier
45401, 2020-019AT
Orbit
LEO
Last TLE update10 hours ago
Origin
Flag of USSpaceX/Seattle (US)
ManufacturerSpaceX/Seattle
MissionOperational Commercial Communications
Bus & MotorSTARLINK, Unknown motor
Mass260 kg wet, ~248 kg dry
Launch date (UTC)
2020-03-18 (5 years ago)
Launch vehicle
FALCON 9
Launch site
Air Force Eastern Test Range (AFETR)
Object type
Payload
Rocket body
Debris
Shape & HBRBox + 1 Pan, 8.86 m
Radar Cross Section13.562 m², Large (>1 m²)

Expand to show TLE details & history

TLE from 10 hours ago
0 STARLINK-1256
1 45401U 20019AT  24361.54569852  .00003834  00000-0  11373-3 0  9992
2 45401  53.0542 300.7743 0001715  88.8057 271.3142 15.37327499263954
Epoch: 2024-12-26T13:05Z
Definitive object data (Epoch: 2024-12-26T13:05:48.352Z)
Latitude
Longitude8.79928°
Altitude454.88 km
Speed7.641 km/s
True Right ascension20h 03m 05s
True Declination0° 00' 00"
Sunlit
Object was in daylight at TLE epoch
Visualization TLE readout
Latitude-52.3399°
Longitude-97.54434°
Altitude473.317 km
Speed7.628 km/s
Apparent Right ascension11h 53m 31s
Apparent Declination-47° 08' 11"
Sunlit
Object is in daylight
Visualization observer readout
Local Sidereal Time22:58:45
Azimuth229.384° WSW
Elevation-77.753°
Doppler factor1
Orbital elements
Apogee altitude455.462 km
Perigee altitude453.118 km
Semi-major axis6,832.427 km
Eccentricity0.0001715
Inclination53.0542°
RAAN300.7743°
Arg. of periapsis88.8057°
True anomaly271.29455°
Mean anomaly271.3142°
Eccentric anomaly271.30438°
Mean motion3.84309 °/min
BSTAR0.00011373
Orbital period93.67 mins
Loading maneuver chart data...
Loading historical data...
Loading historical data...
Loading historical data...
Loading historical data...
Loading historical data...
Loading historical data...
Loading historical data...

STARLINK-1256 Visibility forecast

Observer location: undefined°, undefined

Span
Click to sort rows by Start time (UTC) header in descending order
Start Az.
Max El. time (UTC)
Max El. Az.
Max El.
End time (UTC)
End Az.
5 mins2024-12-27 00:15:24.694Z280.208° WNW2024-12-27 00:18:24.694Z346.21° N21.803°2024-12-27 00:20:24.694Z24.374° NE
5 mins2024-12-27 05:11:24.694Z333.12° NNW2024-12-27 05:13:24.694Z35.504° NE33.447°2024-12-27 05:16:24.694Z104.315° ESE
4 mins2024-12-27 22:02:24.694Z182.163° SSW2024-12-27 22:04:24.694Z119.722° SE28.539°2024-12-27 22:06:24.694Z74.605° E
|